Weather History for KBKB - October, 2012

Change the Weather History Date:

Thursday, October 18, 2012

  Actual Average (KPOE) Record (KPOE)
Temperature  
Mean Temperature 66 °F -  
Max Temperature 79 °F 75 °F 89 °F (2007)
Min Temperature 52 °F 55 °F 41 °F (2001)
Cooling Degree Days 1    
Growing Degree Days 16 (Base 50)    
Moisture  
Dew Point 58 °F    
Average Humidity 74    
Maximum Humidity 100    
Minimum Humidity 24    
Precipitation  
Precipitation 0.12 in - - ()
Sea Level Pressure  
Sea Level Pressure 29.87 in    
Wind  
Wind Speed 3 mph (NNE)    
Max Wind Speed 7 mph    
Max Gust Speed -    
Visibility 8 miles    
Events Rain , Thunderstorm    
Averages and records for this station are not official NWS values.
T = Trace of Precipitation, MM = Missing Value Source: NWS Daily Summary

Daily Weather History Graph

Daily Weather History Graph

Search for Another Location

Airport or City:

Trip Planner

Search our weather history database for the weather conditions in past years. The results will help you decide how hot, cold, wet, or windy it might be!

Date:

Astronomy

Oct. 18, 2012 Rise Set
Actual Time 7:16 AM CDT 6:36 PM CDT
Civil Twilight 6:52 AM CDT 7:00 PM CDT
Nautical Twilight 6:24 AM CDT 7:28 PM CDT
Astronomical Twilight 5:56 AM CDT 7:56 PM CDT
Moon 10:45 AM CDT (10/18) 9:24 PM CDT (10/18)
Length of Visible Light 12h 08m
Length of Day
11h 19m
Waxing Crescent, 14% of the Moon is Illuminated
Oct 18
Waxing Crescent
Oct 21
First Quarter
Oct 29
Full
Nov 6
Last Quarter
Nov 13
New

Hourly Weather History & Observations

Time (CDT) Temp. Dew Point Humidity Pressure Visibility Wind Dir Wind Speed Gust Speed Precip Events Conditions
12:22 AM 78.8 °F 73.4 °F 83% 29.68 in 10.0 mi Variable 6.9 mph - N/A Thunderstorm Thunderstorm
12:54 AM 75.9 °F 73.9 °F 94% 29.80 in 4.0 mi Calm Calm - 0.03 in Rain , Thunderstorm Thunderstorms and Rain
12:58 AM 75.2 °F 73.4 °F 94% 29.73 in 2.0 mi Variable 3.5 mph - 0.04 in Rain , Thunderstorm Heavy Thunderstorms and Rain
1:12 AM 73.4 °F 71.6 °F 94% 29.72 in 6.0 mi West 4.6 mph - 0.09 in Rain , Thunderstorm Thunderstorms and Rain
1:25 AM 73.4 °F 69.8 °F 88% 29.72 in 10.0 mi Calm Calm - 0.09 in Thunderstorm Thunderstorm
1:54 AM 71.1 °F 69.1 °F 93% 29.80 in 4.0 mi Calm Calm - 0.09 in   Clear
1:58 AM 69.8 °F 69.8 °F 100% 29.73 in 2.5 mi Calm Calm - N/A   Partly Cloudy
2:06 AM 69.8 °F 68.0 °F 94% 29.72 in 1.5 mi Calm Calm - N/A   Scattered Clouds
2:11 AM 69.8 °F 68.0 °F 94% 29.73 in 3.0 mi Calm Calm - N/A   Partly Cloudy
2:19 AM 69.8 °F 68.0 °F 94% 29.72 in 1.8 mi Calm Calm - N/A   Scattered Clouds
2:33 AM 69.8 °F 68.0 °F 94% 29.72 in 3.0 mi Calm Calm - N/A   Partly Cloudy
2:54 AM 69.1 °F 66.9 °F 93% 29.79 in 4.0 mi Calm Calm - N/A   Clear
3:26 AM 68.0 °F 66.2 °F 94% 29.74 in 6.0 mi Calm Calm - N/A Thunderstorm Partly Cloudy
3:42 AM 69.8 °F 66.2 °F 88% 29.74 in 10.0 mi Variable 3.5 mph - N/A   Scattered Clouds
3:54 AM 69.1 °F 66.0 °F 90% 29.83 in 10.0 mi Variable 3.5 mph - N/A   Scattered Clouds
4:54 AM 66.9 °F 64.0 °F 90% 29.86 in 10.0 mi Variable 4.6 mph - N/A   Clear
5:54 AM 66.0 °F 63.0 °F 90% 29.89 in 10.0 mi Variable 3.5 mph - N/A   Clear
6:54 AM 64.9 °F 62.1 °F 90% 29.91 in 10.0 mi NNE 6.9 mph - N/A   Clear
7:54 AM 64.0 °F 61.0 °F 90% 29.93 in 10.0 mi Variable 3.5 mph - N/A   Clear
8:54 AM 66.0 °F 55.0 °F 68% 29.96 in 10.0 mi Variable 4.6 mph - N/A   Clear
9:54 AM 70.0 °F 52.0 °F 53% 29.97 in 10.0 mi Variable 5.8 mph - N/A   Clear
10:54 AM 73.0 °F 50.0 °F 44% 29.97 in 10.0 mi NNE 6.9 mph - N/A   Clear
11:54 AM 75.0 °F 48.0 °F 38% 29.98 in 10.0 mi NE 5.8 mph - N/A   Mostly Cloudy
12:54 PM 78.1 °F 43.0 °F 29% 29.97 in 10.0 mi Variable 4.6 mph - N/A   Mostly Cloudy
1:54 PM 77.0 °F 37.9 °F 24% 29.95 in 10.0 mi Variable 5.8 mph - N/A   Mostly Cloudy
2:54 PM 79.0 °F 39.9 °F 25% 29.95 in 10.0 mi Variable 3.5 mph - N/A   Mostly Cloudy
3:54 PM 78.1 °F 42.1 °F 28% 29.94 in 10.0 mi Variable 3.5 mph - N/A   Mostly Cloudy
4:54 PM 78.1 °F 42.1 °F 28% 29.94 in 10.0 mi Variable 5.8 mph - N/A   Clear
5:54 PM 73.0 °F 45.0 °F 37% 29.94 in 10.0 mi Calm Calm - N/A   Clear
6:54 PM 64.9 °F 48.0 °F 54% 29.95 in 10.0 mi Calm Calm - N/A   Clear
7:54 PM 61.0 °F 51.1 °F 70% 29.98 in 10.0 mi Calm Calm - N/A   Clear
8:54 PM 57.9 °F 51.1 °F 78% 30.00 in 10.0 mi Calm Calm - N/A   Clear
9:54 PM 55.0 °F 51.1 °F 86% 30.01 in 10.0 mi Calm Calm - N/A   Clear
10:54 PM 53.1 °F 50.0 °F 89% 30.03 in 10.0 mi Calm Calm - N/A   Clear
11:54 PM 52.0 °F 48.9 °F 89% 30.02 in 10.0 mi Calm Calm - N/A   Clear